Wind_Speed
8 8 8 7 7 6 6 6 7 9 10 11 11 12 13 15 16 17 18 18 18 19 19 20 20 21 22 22 23 23 23 24 24 24 24 25 26 26 26 26 26 27 27
9 9 8 8 7 7 7 7 7 8 8 9 11 12 14 15 16 17 19 19 20 20 21 22 22 23 24 24 24 24 25 26 27 27 27 27 28 28 28 29 29 30 30
9 9 9 9 9 8 8 8 8 9 10 10 11 13 15 16 17 18 19 20 20 21 22 23 23 24 25 25 25 26 26 27 28 28 29 29 30 30 30 30 31 31 32
10 10 9 10 10 9 9 10 10 11 11 12 13 14 16 17 18 19 20 21 21 22 23 23 24 25 26 25 26 27 27 28 29 29 29 30 30 31 31 32 33 33 34
11 11 11 11 12 12 12 12 12 13 14 14 15 16 18 19 20 21 22 23 23 23 23 24 24 25 26 26 27 27 28 28 29 30 30 30 30 31 32 33 33 34 35
12 12 13 13 14 14 14 14 15 15 15 16 17 17 19 20 21 22 23 24 24 24 24 24 25 26 27 28 28 29 29 30 30 31 31 31 32 33 33 34 35 35 35
14 15 15 15 16 16 15 16 17 17 17 17 18 18 19 19 20 21 22 22 23 24 25 25 26 27 28 29 29 29 30 31 31 32 32 33 34 34 35 36 36 37 37
16 16 16 16 17 18 17 18 18 19 19 19 19 19 20 20 20 21 22 23 23 24 25 26 27 28 28 29 29 30 31 31 32 33 34 35 35 36 37 37 38 38 38
17 17 17 18 18 18 19 19 20 20 20 20 21 21 20 21 22 22 23 24 25 26 27 27 27 27 28 29 30 31 32 33 34 35 36 36 36 36 37 38 38 38 39
19 19 19 19 19 19 20 20 20 21 21 21 22 22 23 23 23 23 24 25 26 26 26 27 27 28 29 30 31 32 33 34 34 35 35 36 36 36 37 38 39 39 39
19 19 20 20 20 20 21 22 22 22 22 23 23 23 24 24 24 24 25 26 26 27 28 29 30 30 30 32 33 33 34 34 35 35 35 35 35 36 38 39 39 39 40
20 20 20 21 21 22 23 23 23 24 24 24 24 24 24 24 24 25 26 27 28 29 29 29 30 31 32 32 33 33 34 34 35 35 35 36 37 38 39 40 40 41 42
22 21 21 22 23 24 24 24 25 25 25 25 25 25 25 25 25 27 28 29 30 29 29 30 30 31 32 32 32 33 33 34 35 36 36 37 38 39 40 41 41 42 42
22 22 23 24 24 24 25 25 26 26 26 26 25 26 26 26 27 28 29 30 30 29 30 31 31 32 32 32 32 32 34 35 36 37 38 38 40 40 41 41 42 43 44
22 22 23 23 24 24 25 25 25 26 26 26 26 26 26 27 28 27 28 29 29 30 30 30 31 31 32 32 32 34 34 35 36 36 37 38 39 40 41 42 43 43 43
22 23 23 24 24 25 25 25 25 26 26 26 26 26 26 27 27 28 28 29 29 30 30 31 31 31 31 32 33 33 34 35 36 36 37 38 40 41 41 42 42 41 41
23 23 23 23 24 24 24 25 25 25 25 25 25 26 26 26 27 27 28 28 28 28 29 30 30 30 31 32 33 34 34 35 36 36 38 39 39 39 39 39 39 39 39
22 23 23 23 23 24 24 24 24 23 23 24 24 25 26 26 26 27 27 27 27 28 28 29 30 31 31 32 33 33 34 35 35 36 37 37 37 37 37 37 37 37 37
23 23 22 23 23 23 23 23 23 22 23 24 24 25 25 25 25 26 26 27 28 28 28 29 30 31 32 33 34 34 35 35 35 35 35 35 35 35 35 35 35 34 34
22 22 22 22 22 22 22 22 22 22 23 24 24 24 24 25 25 26 27 28 28 29 30 31 31 32 33 33 34 34 34 34 34 34 34 34 34 34 33 33 33 33 33
22 22 21 21 21 21 22 22 22 22 23 23 23 24 25 25 26 27 28 28 29 29 30 30 31 31 32 32 32 32 32 33 32 32 32 32 31 31 31 31 31 31 31
21 20 20 20 21 21 21 22 22 22 23 23 24 24 25 26 26 26 27 28 29 29 29 30 31 31 31 31 31 31 31 30 30 30 30 30 30 30 30 29 29 28 28
19 19 19 19 20 20 21 21 21 22 22 23 23 24 24 25 25 26 27 28 29 29 30 30 30 30 29 30 29 29 29 29 29 29 28 28 28 28 27 27 27 26 26
18 19 19 19 19 20 20 20 21 21 21 21 22 23 23 24 25 26 27 27 27 28 28 28 28 27 28 28 28 28 28 28 27 27 27 27 27 26 26 25 25 25 25
17 18 19 19 20 20 20 20 21 21 22 22 23 24 24 25 25 26 26 26 26 26 26 26 26 26 27 26 26 26 26 25 25 25 25 25 24 24 24 24 24 24 24
17 17 18 18 19 19 19 20 21 22 22 23 24 25 25 25 25 25 25 25 25 25 25 25 25 25 26 25 25 24 24 24 23 23 23 23 23 23 23 23 23 24 24
Wind_Direction
319 318 315 310 307 300 291 284 273 266 263 258 255 255 255 256 253 254 257 259 262 264 266 268 268 268 267 269 270 270 270 271 272 274 274 275 275 276 276 276 276 276 275
322 321 316 317 312 304 295 289 281 275 271 267 262 261 262 263 262 262 263 263 266 268 267 268 268 269 270 270 272 270 270 271 272 272 274 276 275 276 275 276 276 275 275
316 315 314 316 316 307 301 291 285 282 278 274 270 267 266 266 266 266 267 267 269 271 271 272 271 270 269 271 271 271 272 273 274 273 274 275 276 274 275 276 276 275 275
306 305 305 306 309 309 305 300 289 283 281 278 275 271 269 269 268 269 270 269 270 273 273 275 274 273 272 272 273 273 274 275 275 274 275 276 277 276 276 277 277 277 277
298 296 296 297 299 301 301 299 294 287 283 281 280 276 273 272 271 273 274 273 270 273 275 277 279 276 275 276 274 275 276 277 278 278 278 278 278 278 277 277 278 279 278
292 293 292 292 293 294 295 293 293 291 288 284 282 280 276 273 273 274 275 275 274 274 275 278 277 277 278 277 276 276 278 280 281 282 281 280 280 280 279 278 279 280 280
290 291 291 289 289 289 290 290 289 288 286 285 283 281 279 277 277 276 275 276 277 276 276 279 280 280 279 279 278 277 278 280 280 280 281 281 281 280 280 279 280 281 280
288 289 289 289 289 288 288 289 290 290 287 285 284 283 281 279 280 280 278 277 279 280 281 282 281 281 281 281 280 280 279 280 281 282 283 282 282 281 281 281 282 282 282
283 286 288 288 288 288 287 289 290 290 289 286 286 283 284 282 280 280 279 279 280 280 282 283 283 283 282 282 282 283 283 283 283 283 283 283 282 281 282 282 282 282 283
282 285 285 286 286 287 288 289 291 290 288 286 285 283 284 283 283 283 283 283 283 283 284 285 285 285 284 284 284 284 284 284 285 285 285 285 285 284 284 283 283 283 284
282 286 284 284 285 286 288 289 290 289 288 288 287 286 284 283 282 282 282 282 284 285 286 286 286 286 287 287 286 285 285 285 285 286 287 288 288 286 286 286 285 285 285
282 282 283 283 285 287 288 289 290 291 288 287 287 286 284 282 282 283 284 285 285 287 287 288 287 287 288 288 288 287 286 286 286 286 287 288 289 288 288 287 287 287 286
282 280 281 283 284 286 287 288 289 290 289 288 287 285 284 284 284 284 285 287 288 288 288 289 290 289 289 289 289 289 289 289 288 289 290 290 291 290 288 287 288 289 288
281 281 281 283 284 284 285 287 288 289 288 288 287 286 286 286 286 286 287 288 290 290 291 292 291 291 290 291 292 291 292 293 293 292 292 291 291 290 289 289 289 289 290
282 284 284 285 285 285 286 287 288 288 287 287 287 286 286 288 289 288 289 289 289 290 292 293 293 292 292 293 293 294 295 295 294 294 293 292 292 291 291 292 292 292 292
283 284 286 286 285 286 286 286 287 287 287 287 287 288 290 290 291 291 292 292 292 292 292 293 293 294 294 295 295 296 297 297 296 296 296 295 294 294 294 294 295 295 295
285 285 285 285 285 286 288 288 287 287 287 287 287 288 290 291 292 293 293 294 294 295 295 294 294 295 296 297 298 299 299 299 298 298 298 298 298 297 297 297 298 298 298
286 285 285 285 286 287 289 290 290 288 289 289 290 292 293 292 293 294 295 295 296 296 296 297 297 297 298 299 300 301 301 301 300 301 301 301 301 301 301 301 301 301 301
285 285 285 286 287 288 288 290 290 290 290 291 292 294 295 296 296 296 296 297 298 298 299 299 299 300 300 301 301 302 302 302 303 303 303 303 303 303 304 304 304 303 303
284 285 286 287 287 288 289 289 289 290 292 292 292 293 295 297 297 297 297 297 298 299 300 300 301 301 301 302 303 303 303 304 304 304 305 305 306 306 305 306 306 306 306
284 284 285 286 287 287 288 289 290 291 292 293 294 294 295 296 297 298 300 299 299 301 302 303 303 304 304 305 305 305 305 305 306 307 308 307 308 308 309 309 309 309 309
282 283 283 285 287 288 289 291 292 293 294 295 296 296 295 296 298 300 301 303 303 304 305 305 305 305 306 307 307 307 307 308 309 310 311 311 311 311 311 312 312 312 312
280 281 284 286 288 290 292 293 293 294 295 297 298 298 299 300 302 304 305 306 306 306 307 307 308 309 310 310 309 309 309 310 311 312 312 312 313 313 314 314 313 314 315
279 281 284 287 289 291 291 290 293 297 299 301 302 303 303 304 306 307 308 309 309 309 309 310 311 312 313 313 312 312 311 311 311 312 313 314 315 315 316 316 317 316 317
279 281 284 288 291 292 292 293 296 299 301 302 304 306 307 308 309 310 312 312 313 314 315 315 315 315 316 317 317 317 316 316 315 316 317 318 318 318 319 320 321 321 321
280 283 286 289 292 294 295 297 299 300 303 304 306 307 308 310 312 313 313 314 315 315 315 315 315 315 316 317 318 318 318 318 318 318 320 320 320 321 321 322 323 324 324
Height
5876 5875 5875 5874 5873 5872 5872 5872 5871 5871 5872 5872 5873 5873 5873 5874 5875 5876 5877 5878 5878 5878 5878 5878 5878 5878 5877 5877 5877 5876 5876 5876 5875 5875 5874 5874 5873 5872 5871 5870 5869 5869 5868
5875 5874 5873 5873 5872 5871 5870 5870 5870 5870 5870 5870 5870 5870 5871 5871 5871 5872 5872 5873 5873 5873 5873 5873 5872 5872 5871 5871 5871 5870 5870 5869 5869 5868 5868 5867 5866 5865 5864 5863 5862 5861 5860
5873 5873 5872 5871 5870 5870 5869 5868 5868 5868 5867 5867 5867 5867 5867 5867 5867 5868 5868 5868 5868 5868 5867 5867 5866 5865 5865 5865 5865 5864 5864 5863 5862 5862 5861 5859 5858 5857 5857 5855 5854 5853 5852
5872 5871 5870 5870 5869 5868 5867 5866 5865 5865 5865 5864 5864 5864 5864 5863 5863 5863 5863 5863 5863 5862 5862 5861 5860 5859 5859 5859 5858 5858 5857 5856 5855 5854 5853 5852 5851 5849 5849 5847 5846 5845 5843
5869 5869 5868 5867 5867 5866 5865 5864 5863 5862 5862 5861 5860 5860 5860 5859 5859 5858 5858 5857 5856 5856 5856 5855 5854 5853 5852 5852 5851 5851 5850 5849 5848 5846 5845 5844 5843 5842 5840 5839 5837 5835 5834
5867 5866 5865 5865 5864 5863 5862 5861 5860 5859 5858 5857 5857 5856 5855 5854 5853 5853 5852 5851 5850 5850 5849 5849 5848 5847 5846 5845 5844 5843 5843 5841 5840 5838 5837 5836 5834 5833 5831 5830 5828 5827 5825
5864 5863 5862 5861 5860 5859 5859 5858 5857 5855 5854 5853 5852 5852 5851 5850 5849 5847 5846 5845 5845 5844 5843 5843 5842 5840 5839 5838 5837 5836 5835 5833 5832 5830 5829 5827 5826 5824 5822 5820 5818 5817 5815
5859 5859 5858 5857 5856 5855 5854 5853 5852 5851 5850 5849 5847 5846 5845 5844 5843 5842 5841 5840 5839 5838 5837 5836 5835 5833 5832 5830 5829 5827 5826 5825 5823 5821 5820 5818 5816 5814 5812 5811 5808 5806 5804
5855 5854 5853 5853 5852 5851 5850 5849 5847 5846 5845 5844 5842 5841 5840 5839 5838 5837 5835 5834 5833 5832 5830 5829 5828 5826 5825 5823 5821 5819 5818 5816 5814 5812 5810 5808 5806 5804 5802 5800 5798 5796 5793
5850 5849 5848 5847 5847 5846 5845 5843 5842 5841 5840 5838 5837 5836 5835 5833 5832 5830 5829 5828 5826 5825 5823 5822 5820 5819 5817 5815 5813 5811 5809 5807 5805 5803 5800 5798 5796 5794 5791 5789 5787 5785 5782
5845 5844 5843 5842 5841 5840 5839 5838 5837 5835 5834 5832 5831 5829 5828 5827 5825 5824 5822 5821 5819 5818 5816 5814 5813 5811 5809 5807 5805 5802 5800 5798 5796 5793 5791 5788 5786 5784 5781 5779 5776 5774 5771
5839 5838 5837 5836 5835 5834 5833 5832 5830 5829 5827 5826 5825 5823 5822 5820 5819 5817 5816 5814 5812 5811 5809 5807 5805 5803 5801 5798 5796 5793 5791 5788 5786 5784 5781 5779 5776 5774 5771 5768 5765 5762 5759
5833 5832 5831 5830 5829 5828 5826 5825 5824 5822 5821 5819 5818 5816 5815 5813 5812 5810 5809 5807 5805 5803 5801 5799 5797 5795 5792 5790 5787 5784 5782 5779 5777 5774 5771 5769 5766 5763 5760 5757 5754 5750 5747
5827 5826 5825 5824 5823 5821 5820 5819 5817 5816 5814 5812 5811 5809 5808 5806 5805 5803 5801 5799 5797 5795 5793 5791 5788 5786 5784 5781 5778 5776 5773 5770 5767 5764 5761 5758 5755 5751 5748 5745 5741 5738 5735
5821 5820 5819 5817 5816 5815 5814 5812 5810 5809 5807 5806 5804 5802 5801 5799 5797 5795 5793 5791 5789 5787 5785 5783 5780 5778 5775 5772 5769 5767 5764 5761 5757 5754 5751 5747 5744 5740 5736 5733 5729 5725 5722
5815 5814 5812 5811 5810 5808 5807 5805 5804 5802 5801 5799 5797 5795 5793 5792 5790 5788 5786 5784 5782 5779 5777 5775 5772 5769 5767 5764 5761 5758 5754 5751 5747 5744 5740 5737 5733 5729 5725 5721 5717 5713 5710
5808 5807 5806 5804 5803 5801 5800 5798 5797 5796 5794 5792 5790 5789 5787 5785 5783 5781 5779 5776 5774 5772 5769 5767 5764 5761 5758 5755 5752 5748 5745 5741 5738 5734 5730 5726 5722 5718 5714 5710 5706 5702 5698
5801 5800 5799 5798 5796 5795 5793 5792 5790 5789 5787 5786 5784 5782 5780 5778 5776 5774 5771 5769 5766 5764 5761 5759 5756 5753 5750 5747 5743 5739 5736 5732 5728 5724 5720 5716 5712 5708 5704 5700 5696 5692 5688
5795 5794 5792 5791 5790 5788 5787 5785 5784 5782 5781 5779 5778 5776 5773 5771 5769 5767 5764 5762 5759 5757 5754 5751 5748 5745 5741 5738 5734 5731 5727 5723 5719 5715 5711 5707 5702 5698 5694 5690 5686 5682 5678
5788 5787 5786 5785 5783 5782 5781 5779 5778 5776 5775 5773 5771 5769 5767 5765 5762 5760 5757 5755 5752 5749 5746 5743 5739 5736 5732 5729 5725 5721 5718 5714 5710 5706 5702 5698 5693 5689 5685 5681 5677 5673 5669
5782 5781 5780 5778 5777 5776 5775 5773 5772 5770 5768 5766 5764 5762 5760 5758 5755 5753 5750 5747 5744 5741 5738 5734 5731 5727 5724 5720 5717 5713 5709 5705 5701 5697 5693 5689 5685 5681 5677 5673 5669 5665 5661
5775 5774 5774 5773 5771 5770 5769 5767 5765 5764 5762 5760 5758 5756 5754 5751 5749 5746 5743 5740 5737 5734 5730 5726 5723 5719 5715 5712 5708 5704 5701 5697 5693 5689 5685 5681 5678 5674 5670 5666 5662 5658 5654
5770 5769 5768 5767 5766 5764 5763 5761 5759 5757 5755 5753 5752 5749 5747 5745 5742 5739 5736 5733 5729 5726 5722 5718 5715 5711 5707 5703 5700 5696 5693 5689 5685 5681 5678 5674 5671 5667 5663 5659 5655 5651 5648
5764 5763 5762 5761 5760 5759 5757 5756 5754 5752 5750 5747 5745 5743 5741 5738 5735 5732 5729 5725 5722 5718 5714 5711 5707 5703 5700 5696 5692 5689 5685 5682 5678 5675 5671 5668 5664 5660 5657 5653 5649 5646 5642
5759 5758 5757 5756 5755 5753 5752 5750 5748 5746 5744 5742 5740 5737 5734 5731 5728 5725 5722 5718 5715 5711 5708 5704 5701 5697 5693 5690 5686 5682 5679 5675 5672 5668 5665 5662 5658 5655 5651 5648 5644 5640 5637
5754 5753 5752 5751 5749 5748 5746 5745 5743 5741 5739 5736 5733 5731 5728 5725 5722 5718 5715 5712 5708 5705 5702 5698 5695 5691 5688 5684 5680 5677 5673 5670 5666 5663 5660 5656 5653 5649 5646 5643 5639 5635 5632